DW8463 Weather Reports


time (UTC)temp
C
wind
direction
speed
KPH
gust
KPH
rain 1hr
cm
rain 24hr
cm
rain mn
cm
humidity
%
barometer
mb
20260902065306 18 0 9.7 16.1 1.93 2.08 2.06 100 1015.4
20260902064804 18 0 8.0 16.1 1.91 1.98 1.96 100 1016.3
20260902063803 19 0 3.2 19.3 1.55 1.63 1.60 100 1014.9
20260902063303 20 0 11.3 33.8 1.24 1.32 1.30 100 1015.2
20260902062803 20 0 9.7 27.4 0.76 0.84 0.81 100 1014.0
20260902061804 20 0 3.2 4.8 0.46 0.53 0.51 100 1010.7
20260902061303 20 0 1.6 8.0 0.43 0.51 0.48 100 1010.3
20260902060804 20 0 14.5 29.0 0.46 0.51 0.48 100 1009.4
20260902060303 20 0 14.5 20.9 0.48 0.51 0.48 100 1010.3
20260902055803 20 0 9.7 20.9 0.41 0.46 0.43 100 1010.6
20260902055306 20 0 9.7 19.3 0.13 0.15 0.13 100 1010.8
20260902054803 20 0 8.0 19.3 0.05 0.08 0.05 100 1010.1
20260902054303 21 0 6.4 14.5 0.05 0.08 0.05 100 1010.5
20260902053804 21 0 4.8 19.3 0.05 0.08 0.05 100 1010.7
20260902053303 21 0 8.0 9.7 0.05 0.08 0.05 100 1010.5
20260902052803 21 0 1.6 4.8 0.05 0.08 0.05 100 1009.9
20260902052306 21 0 1.6 4.8 0.05 0.08 0.05 100 1010.4
20260902051804 21 0 0.0 1.6 0.05 0.08 0.05 100 1010.8
20260902051303 21 0 0.0 1.6 0.05 0.08 0.05 100 1010.8
20260902050811 21 0 1.6 3.2 0.03 0.05 0.03 100 1010.7
20260902045803 21 0 0.0 3.2 0.03 0.03 0.03 100 1011.2
20260902045306 21 0 0.0 0.0 0.00 0.00 0.00 100 1011.1
20260902044803 21 0 0.0 0.0 0.00 0.00 0.00 100 1011.2
20260902044304 21 0 0.0 0.0 0.00 0.00 0.00 100 1010.5
20260902043803 21 0 0.0 0.0 0.00 0.00 0.00 100 1010.6
20260902043304 21 0 0.0 0.0 0.00 0.00 0.00 100 1010.4
20260902042803 21 0 0.0 0.0 0.00 0.00 0.00 100 1010.6
20260902042308 21 0 0.0 0.0 0.00 0.00 0.00 100 1010.9
20260902041803 21 0 0.0 0.0 0.00 0.00 0.00 100 1010.7
20260902041303 21 0 0.0 0.0 0.00 0.00 0.00 100 1010.4
20260902040803 21 0 0.0 0.0 0.00 0.00 0.00 100 1010.5
20260902040304 21 0 0.0 0.0 0.00 0.00 0.00 100 1010.7
20260902035305 20 0 0.0 0.0 0.00 0.00 0.00 100 1010.7
20260902034803 20 0 0.0 0.0 0.00 0.00 0.00 100 1010.9
20260902033803 21 0 0.0 0.0 0.00 0.00 0.00 100 1011.1
20260902033304 21 0 0.0 0.0 0.00 0.00 0.00 100 1011.3
20260902032804 21 0 0.0 0.0 0.00 0.00 0.00 100 1011.2
20260902032306 21 0 0.0 0.0 0.00 0.00 0.00 100 1011.3
20260902031803 21 0 0.0 0.0 0.00 0.00 0.00 100 1011.3
20260902031303 21 0 0.0 0.0 0.00 0.00 0.00 100 1011.3
20260902025804 21 0 0.0 0.0 0.00 0.00 0.00 100 1011.3
20260902025306 21 0 0.0 0.0 0.00 0.00 0.00 100 1011.2
20260902024303 21 0 0.0 0.0 0.00 0.00 0.00 100 1011.2
20260902023803 21 0 0.0 0.0 0.00 0.00 0.00 100 1011.1
20260902023304 21 0 0.0 0.0 0.00 0.00 0.00 100 1011.2
20260902022804 21 0 0.0 0.0 0.00 0.00 0.00 100 1011.2
20260902022306 21 0 0.0 0.0 0.00 0.00 0.00 100 1011.2
20260902021803 21 0 0.0 0.0 0.00 0.00 0.00 100 1011.1
20260902021304 21 0 0.0 0.0 0.00 0.00 0.00 100 1011.2
20260902020804 21 0 0.0 0.0 0.00 0.00 0.00 100 1011.2
20260902020303 21 0 0.0 0.0 0.00 0.00 0.00 100 1011.2
20260902015803 22 0 0.0 1.6 0.00 0.00 0.00 100 1011.1
20260902015306 22 0 0.0 0.0 0.00 0.00 0.00 100 1011.0
20260902014804 22 0 0.0 0.0 0.00 0.00 0.00 100 1011.0
20260902014304 22 306 0.0 0.0 0.00 0.00 0.00 100 1011.0
20260902013803 22 306 0.0 0.0 0.00 0.00 0.00 100 1011.0
20260902013304 22 306 0.0 0.0 0.00 0.00 0.00 100 1010.9
20260902012309 22 306 0.0 1.6 0.00 0.00 0.00 100 1010.9
20260902011803 23 306 0.0 0.0 0.00 0.00 0.00 100 1010.8
20260902011303 23 306 0.0 0.0 0.00 0.00 0.00 100 1010.8
20260902010803 23 306 0.0 0.0 0.00 0.00 0.00 100 1010.8
20260902010303 23 306 0.0 0.0 0.00 0.00 0.00 100 1010.8
20260902005803 23 306 0.0 0.0 0.00 0.00 0.00 93 1010.9
20260902005305 23 306 0.0 0.0 0.00 0.00 0.00 93 1010.9
20260902003803 24 306 0.0 0.0 0.00 0.00 0.00 93 1010.9
20260902003304 25 306 0.0 0.0 0.00 0.00 0.00 93 1010.9
20260902002803 25 306 0.0 0.0 0.00 0.00 0.00 93 1010.9
20260902001804 25 306 0.0 0.0 0.00 0.00 0.00 93 1011.0
20260902001303 25 306 0.0 0.0 0.00 0.00 0.00 93 1011.0
20260902000803 25 306 0.0 0.0 0.00 0.00 0.00 93 1011.0
20260902000304 25 306 0.0 0.0 0.00 0.00 0.00 93 1011.0
20260901235803 26 306 0.0 0.0 0.00 0.00 0.00 86 1011.0
20260901234803 26 306 0.0 0.0 0.00 0.00 0.00 86 1010.9
20260901234303 26 306 0.0 0.0 0.00 0.00 0.00 86 1010.8
20260901233303 26 306 0.0 0.0 0.00 0.00 0.00 86 1010.9
20260901232803 26 306 0.0 0.0 0.00 0.00 0.00 86 1010.9
20260901231803 27 306 0.0 3.2 0.00 0.00 0.00 86 1010.9
20260901231303 27 306 0.0 3.2 0.00 0.00 0.00 86 1010.8
20260901230303 26 306 0.0 0.0 0.00 0.00 0.00 86 1010.7
20260901224803 27 306 0.0 0.0 0.00 0.00 0.00 78 1010.6
20260901224303 27 306 0.0 0.0 0.00 0.00 0.00 78 1010.6
20260901223804 27 306 0.0 0.0 0.00 0.00 0.00 78 1010.6
20260901223304 28 306 0.0 1.6 0.00 0.00 0.00 78 1010.6
20260901222803 28 306 0.0 0.0 0.00 0.00 0.00 78 1010.8
20260901221803 28 267 1.6 4.8 0.00 0.00 0.00 78 1011.0
20260901221304 28 215 0.0 4.8 0.00 0.00 0.00 78 1011.0
20260901220803 28 197 0.0 8.0 0.00 0.00 0.00 78 1011.0
20260901220304 28 200 1.6 4.8 0.00 0.00 0.00 76 1010.9
20260901215803 28 217 3.2 8.0 0.00 0.00 0.00 67 1010.9
20260901215306 28 190 3.2 11.3 0.00 0.00 0.00 67 1010.9
20260901214803 28 193 3.2 9.7 0.00 0.00 0.00 67 1010.9
20260901214304 28 163 3.2 9.7 0.00 0.00 0.00 67 1010.8
20260901213803 28 193 1.6 4.8 0.00 0.00 0.00 67 1010.8
20260901213304 28 183 1.6 4.8 0.00 0.00 0.00 67 1010.8
20260901212803 28 201 0.0 0.0 0.00 0.00 0.00 67 1010.8
20260901212306 28 201 0.0 3.2 0.00 0.00 0.00 67 1010.6
20260901211304 28 211 3.2 8.0 0.00 0.00 0.00 67 1010.7
20260901210803 28 209 1.6 9.7 0.00 0.00 0.00 67 1010.9
20260901210304 28 199 1.6 4.8 0.00 0.00 0.00 67 1011.0
20260901205803 28 226 3.2 4.8 0.00 0.00 0.00 59 1010.8
20260901204803 29 191 3.2 4.8 0.00 0.00 0.00 59 1010.7
20260901204303 29 191 0.0 3.2 0.00 0.00 0.00 59 1010.9
20260901203803 30 191 1.6 4.8 0.00 0.00 0.00 59 1010.8
20260901203303 30 191 0.0 0.0 0.00 0.00 0.00 59 1010.7
20260901202306 29 191 0.0 4.8 0.00 0.00 0.00 59 1011.2
20260901201803 28 191 1.6 4.8 0.00 0.00 0.00 59 1011.3
20260901200803 28 191 0.0 0.0 0.00 0.00 0.00 59 1011.1
20260901200303 28 191 0.0 0.0 0.00 0.00 0.00 59 1011.4
20260901195804 28 191 0.0 0.0 0.00 0.00 0.00 59 1011.5
20260901194303 29 191 3.2 8.0 0.00 0.00 0.00 59 1011.5
20260901193803 29 238 0.0 3.2 0.00 0.00 0.00 59 1011.4
20260901193303 29 238 0.0 0.0 0.00 0.00 0.00 59 1011.4
20260901192803 29 238 0.0 0.0 0.00 0.00 0.00 59 1011.4
20260901192306 29 238 0.0 0.0 0.00 0.00 0.00 59 1011.3
20260901191803 29 238 0.0 1.6 0.00 0.00 0.00 59 1011.3
20260901191303 29 238 0.0 4.8 0.00 0.00 0.00 59 1011.3
20260901190804 29 238 1.6 8.0 0.00 0.00 0.00 59 1011.3
20260901190303 29 237 1.6 4.8 0.00 0.00 0.00 59 1011.5
20260901185306 30 228 1.6 4.8 0.00 0.00 0.00 58 1011.5
20260901184803 30 149 0.0 4.8 0.00 0.00 0.00 58 1011.4
20260901184304 30 142 1.6 4.8 0.00 0.00 0.00 58 1011.4
20260901183303 30 262 3.2 4.8 0.00 0.00 0.00 58 1011.7
20260901182803 30 243 3.2 8.0 0.00 0.00 0.00 58 1011.8
20260901182305 31 328 3.2 8.0 0.00 0.00 0.00 58 1011.9
20260901181303 31 273 3.2 9.7 0.00 0.00 0.00 58 1012.1
20260901180804 31 294 3.2 8.0 0.00 0.00 0.00 58 1012.1
20260901180303 31 280 3.2 8.0 0.00 0.00 0.00 58 1012.1
20260901175305 31 222 3.2 4.8 0.00 0.00 0.00 62 1012.3
20260901174804 31 235 1.6 9.7 0.00 0.00 0.00 62 1012.3
20260901174304 31 259 1.6 4.8 0.00 0.00 0.00 62 1012.2
20260901173803 30 79 3.2 4.8 0.00 0.00 0.00 62 1012.2
20260901173304 30 148 1.6 4.8 0.00 0.00 0.00 62 1012.2
20260901172305 30 201 1.6 4.8 0.00 0.00 0.00 62 1012.3
20260901171303 30 38 3.2 8.0 0.00 0.00 0.00 62 1012.5
20260901170803 29 277 4.8 8.0 0.00 0.00 0.00 62 1012.6
20260901170303 29 285 3.2 12.9 0.00 0.00 0.00 62 1012.6
20260901165306 28 250 1.6 9.7 0.00 0.00 0.00 63 1012.6
20260901164804 28 263 3.2 8.0 0.00 0.00 0.00 63 1012.6
20260901164304 28 331 4.8 11.3 0.00 0.00 0.00 63 1012.7
20260901163803 28 302 1.6 4.8 0.00 0.00 0.00 63 1012.8
20260901163304 28 314 1.6 8.0 0.00 0.00 0.00 63 1012.9
20260901162803 27 298 1.6 12.9 0.00 0.00 0.00 63 1012.9
20260901162306 27 345 4.8 9.7 0.00 0.00 0.00 63 1012.8
20260901161803 27 344 1.6 11.3 0.00 0.00 0.00 63 1012.8
20260901161303 27 330 4.8 9.7 0.00 0.00 0.00 63 1012.8
20260901160803 27 22 4.8 12.9 0.00 0.00 0.00 63 1012.8
20260901155804 27 28 3.2 4.8 0.00 0.00 0.00 73 1012.8
20260901155306 27 44 3.2 9.7 0.00 0.00 0.00 73 1012.7
20260901154303 26 335 1.6 4.8 0.00 0.00 0.00 73 1012.7
20260901153803 26 308 1.6 4.8 0.00 0.00 0.00 73 1012.6
20260901153303 26 19 3.2 8.0 0.00 0.00 0.00 73 1012.6
20260901152803 26 342 3.2 9.7 0.00 0.00 0.00 73 1012.6
20260901152305 26 359 1.6 8.0 0.00 0.00 0.00 73 1012.5
20260901151803 26 330 8.0 12.9 0.00 0.00 0.00 73 1012.6
20260901151304 25 13 3.2 4.8 0.00 0.00 0.00 73 1012.6
20260901150804 25 314 6.4 8.0 0.00 0.00 0.00 73 1012.6
20260901150303 25 281 1.6 4.8 0.00 0.00 0.00 76 1012.7
20260901145803 24 294 1.6 4.8 0.00 0.00 0.00 92 1012.8
20260901144303 23 221 0.0 0.0 0.00 0.00 0.00 92 1012.8
20260901143803 23 218 1.6 4.8 0.00 0.00 0.00 92 1012.9
20260901143303 22 316 0.0 0.0 0.00 0.00 0.00 92 1012.9
20260901142803 22 316 0.0 1.6 0.00 0.00 0.00 92 1012.9
20260901142306 22 316 1.6 4.8 0.00 0.00 0.00 92 1012.9
20260901141803 21 316 1.6 3.2 0.00 0.00 0.00 92 1013.0
20260901141303 21 316 0.0 3.2 0.00 0.00 0.00 92 1012.9
20260901140803 20 0 0.0 4.8 0.00 0.00 0.00 92 1012.9
20260901140304 20 340 1.6 4.8 0.00 0.00 0.00 92 1012.9
20260901135803 19 340 0.0 1.6 0.00 0.00 0.00 100 1013.0
20260901135305 19 346 3.2 4.8 0.00 0.00 0.00 100 1013.1
20260901134803 18 286 1.6 4.8 0.00 0.00 0.00 100 1013.1
20260901133803 18 286 0.0 0.0 0.00 0.00 0.00 100 1012.8
20260901133304 18 286 0.0 0.0 0.00 0.00 0.00 100 1012.8
20260901132307 17 286 0.0 0.0 0.00 0.00 0.00 100 1012.8
20260901131804 17 286 0.0 1.6 0.00 0.00 0.00 100 1012.8
20260901131303 17 286 0.0 0.0 0.00 0.00 0.00 100 1012.8
20260901130804 17 0 0.0 0.0 0.00 0.00 0.00 100 1012.7
20260901125803 16 0 0.0 1.6 0.00 0.00 0.00 100 1012.7
20260901125308 16 0 0.0 1.6 0.00 0.00 0.00 100 1012.7
20260901124803 16 0 0.0 0.0 0.00 0.00 0.00 100 1012.6
20260901124304 16 0 0.0 0.0 0.00 0.00 0.00 100 1012.6
20260901123803 16 0 0.0 0.0 0.00 0.00 0.00 100 1012.6
20260901123304 16 0 0.0 0.0 0.00 0.00 0.00 100 1012.6
20260901122803 16 0 0.0 0.0 0.00 0.00 0.00 100 1012.6
20260901121803 16 0 0.0 0.0 0.00 0.00 0.00 100 1012.5
20260901121303 16 0 0.0 0.0 0.00 0.00 0.00 100 1012.4
20260901120804 15 0 0.0 0.0 0.00 0.00 0.00 100 1012.4
20260901120303 15 0 0.0 0.0 0.00 0.00 0.00 100 1012.3
20260901115803 15 0 0.0 0.0 0.00 0.00 0.00 100 1012.3
20260901115306 15 0 0.0 0.0 0.00 0.00 0.00 100 1012.3
20260901114303 16 0 0.0 0.0 0.00 0.00 0.00 100 1012.2
20260901113803 16 0 0.0 0.0 0.00 0.00 0.00 100 1012.1
20260901113304 15 0 0.0 0.0 0.00 0.00 0.00 100 1012.1
20260901112306 15 0 0.0 0.0 0.00 0.00 0.00 100 1011.9
20260901111303 15 0 0.0 0.0 0.00 0.00 0.00 100 1011.9
20260901110803 15 0 0.0 0.0 0.00 0.00 0.00 100 1011.8
20260901110304 15 0 0.0 0.0 0.00 0.00 0.00 100 1011.8
20260901104804 15 0 0.0 0.0 0.00 0.00 0.00 100 1012.0
20260901104303 16 0 0.0 0.0 0.00 0.00 0.00 100 1012.0
20260901103803 16 0 0.0 0.0 0.00 0.00 0.00 100 1011.9
20260901103304 16 0 0.0 0.0 0.00 0.00 0.00 100 1011.8
20260901102803 16 0 0.0 0.0 0.00 0.00 0.00 100 1011.9
20260901102306 16 0 0.0 1.6 0.00 0.00 0.00 100 1011.9
20260901101804 16 0 0.0 0.0 0.00 0.00 0.00 100 1012.0
20260901101303 16 0 0.0 0.0 0.00 0.00 0.00 100 1011.8
20260901100803 16 0 0.0 0.0 0.00 0.00 0.00 100 1011.8
20260901100304 16 0 0.0 0.0 0.00 0.00 0.00 100 1011.7
20260901095803 16 0 0.0 0.0 0.00 0.00 0.00 100 1011.7
20260901095306 16 0 0.0 0.0 0.00 0.00 0.00 100 1011.6
20260901094803 16 0 0.0 0.0 0.00 0.00 0.00 100 1011.6
20260901094304 16 0 0.0 0.0 0.00 0.00 0.00 100 1011.6
20260901093803 16 0 0.0 0.0 0.00 0.00 0.00 100 1011.6
20260901093303 16 0 0.0 0.0 0.00 0.00 0.00 100 1011.5
20260901092803 16 0 0.0 0.0 0.00 0.00 0.00 100 1011.5
20260901092305 16 0 0.0 0.0 0.00 0.00 0.00 100 1011.5
20260901091804 16 0 0.0 0.0 0.00 0.00 0.00 100 1011.3
20260901091303 16 0 0.0 0.0 0.00 0.00 0.00 100 1011.3
20260901090303 16 0 0.0 0.0 0.00 0.00 0.00 100 1011.4
20260901085803 17 0 0.0 0.0 0.00 0.00 0.00 100 1011.4
20260901085305 17 0 0.0 0.0 0.00 0.00 0.00 100 1011.5
20260901084303 17 0 0.0 0.0 0.00 0.00 0.00 100 1011.3
20260901083803 17 0 0.0 0.0 0.00 0.00 0.00 100 1011.3
20260901083303 17 0 0.0 0.0 0.00 0.00 0.00 100 1011.2
20260901082803 17 0 0.0 0.0 0.00 0.00 0.00 100 1011.2
20260901082306 17 0 0.0 0.0 0.00 0.00 0.00 100 1011.2
20260901081803 17 0 0.0 0.0 0.00 0.00 0.00 100 1011.3
20260901081303 17 0 0.0 0.0 0.00 0.00 0.00 100 1011.3
20260901080803 17 0 0.0 0.0 0.00 0.00 0.00 100 1011.3
20260901080304 17 0 0.0 0.0 0.00 0.00 0.00 100 1011.3
20260901075803 17 0 0.0 0.0 0.00 0.00 0.00 100 1011.3
20260901075307 17 0 0.0 0.0 0.00 0.00 0.00 100 1011.5
20260901074304 18 0 0.0 0.0 0.00 0.00 0.00 100 1011.5
20260901073303 18 0 0.0 0.0 0.00 0.00 0.00 100 1011.7
20260901072803 18 0 0.0 0.0 0.00 0.00 0.00 100 1011.8
20260901072308 18 0 0.0 0.0 0.00 0.00 0.00 100 1011.8
20260901071804 18 0 0.0 0.0 0.00 0.00 0.00 100 1011.9
20260901071304 18 0 0.0 0.0 0.00 0.00 0.00 100 1011.8
20260901070804 18 273 0.0 4.8 0.00 0.00 0.00 100 1011.8
20260901070303 18 272 0.0 1.6 0.00 0.00 0.00 100 1011.7